sat.trackr.live / text

‹ back to catalog

STARLINK-34993

NORAD 65389 · 2025-191L

PAYLOAD ACTIVE UNKNOWN

§ Identity

Operator
Country
US
Launch date
2025-08-30
Launch site
AFWTR
Launch vehicle
Mass (kg)
RCS (m²)

Purposes: comms

External: N2YO · Heavens-Above · Gunter

§ Orbital elements

Epoch: 2026-05-25T02:16:13.860768Z

Period
95.64 min
Inclination
97.4519°
Eccentricity
0.0002335
Mean motion
15.05660422 rev/d
Perigee alt
547.9 km
Apogee alt
551.1 km
Semi-major
6,927.6 km
B*
1.0085e-4
RAAN
16.4198°
Arg perigee
89.8156°
Mean anomaly
270.3339°
Rev number
4,176

§ Raw data

STARLINK-349931 65389U 25191L   26145.09460487  .00001397  00000+0  10085-3 0  99912 65389  97.4519  16.4198 0002335  89.8156 270.3339 15.05660422 41763

JSON: /api/v1/satellites/65389 · /tle

For live sub-satellite position, see the globe view (requires WebGL).

§ Visibility from observer

Set your observer location to see the next 7 days of passes ≥ 10°. The values pass through the URL so the page stays shareable.

No JS? Fill the form by hand. The geolocation button needs JavaScript.